CW6043 Weather Reports


time (UTC)temp
F
wind
direction
speed
knots
gust
knots
rain 1hr
in
rain 24hr
in
rain mn
in
humidity
%
barometer
mb
20260506205018 76 270 1.7 5.2 0.00 0.00 0.00 46 1011.9
20260506204017 75 270 1.7 4.3 0.00 0.00 0.00 44 1012.0
20260506203017 76 293 1.7 5.2 0.00 0.00 0.00 45 1012.0
20260506202017 75 270 0.9 4.3 0.00 0.00 0.00 44 1012.3
20260506201017 75 293 0.9 6.1 0.00 0.00 0.00 45 1012.5
20260506200018 74 135 0.9 2.6 0.00 0.00 0.00 47 1012.5
20260506195018 75 135 0.9 4.3 0.00 0.00 0.00 40 1012.8
20260506194018 74 293 0.9 2.6 0.00 0.00 0.00 42 1012.7
20260506193018 72 135 1.7 6.1 0.00 0.00 0.00 45 1012.7
20260506192058 72 90 0.9 5.2 0.00 0.00 0.00 41 1012.9
20260506191017 71 90 1.7 8.7 0.00 0.00 0.00 42 1013.0
20260506190019 71 90 0.9 3.5 0.00 0.00 0.00 44 1013.2
20260506185037 70 90 1.7 4.3 0.00 0.00 0.00 40 1013.4
20260506184017 68 135 0.9 1.7 0.00 0.00 0.00 41 1013.3
20260506183017 68 270 1.7 4.3 0.00 0.00 0.00 40 1013.4
20260506182018 69 270 1.7 4.3 0.00 0.00 0.00 40 1013.7
20260506181037 68 293 0.9 3.5 0.00 0.00 0.00 40 1013.5
20260506180018 67 293 1.7 4.3 0.00 0.00 0.00 42 1013.6
20260506175018 68 0.0 0.9 0.00 0.00 0.00 45 1013.8
20260506174017 66 113 0.9 1.7 0.00 0.00 0.00 43 1013.7
20260506173037 65 293 0.9 2.6 0.00 0.00 0.00 53 1013.9
20260506172017 64 270 0.9 2.6 0.00 0.00 0.00 46 1013.9
20260506171017 63 0.0 0.9 0.00 0.00 0.00 46 1013.8
20260506170017 63 0.0 0.9 0.00 0.00 0.00 48 1014.0
20260506165017 63 90 0.9 2.6 0.00 0.00 0.00 52 1014.3
20260506164017 62 158 0.9 2.6 0.00 0.00 0.00 51 1014.5
20260506163017 62 0.0 0.9 0.00 0.00 0.00 53 1014.5
20260506162017 60 270 0.9 2.6 0.00 0.00 0.00 52 1014.5
20260506161037 59 0.0 1.7 0.00 0.00 0.00 54 1014.5
20260506160037 58 0.0 2.6 0.00 0.00 0.00 54 1014.4
20260506155017 58 0.0 0.9 0.00 0.00 0.00 57 1014.8
20260506154017 57 0.0 0.9 0.00 0.00 0.00 58 1014.8
20260506153037 55 158 0.9 1.7 0.00 0.00 0.00 62 1014.5
20260506152017 54 0.0 0.9 0.00 0.00 0.00 67 1015.0
20260506151038 51 158 0.9 1.7 0.00 0.00 0.00 71 1014.9
20260506150017 50 0.0 0.9 0.00 0.00 0.00 72 1014.8
20260506145017 49 0.0 0.0 0.00 0.00 0.00 85 1015.2
20260506144057 46 0.0 0.0 0.00 0.00 0.00 93 1015.1
20260506143017 43 0.0 0.0 0.00 0.00 0.00 94 1014.8
20260506142017 39 0.0 0.0 0.00 0.00 0.00 93 1014.7
20260506141017 38 0.0 0.0 0.00 0.00 0.00 93 1014.7
20260506140017 36 0.0 0.0 0.00 0.00 0.00 93 1014.6
20260506135017 35 0.0 0.0 0.00 0.00 0.00 92 1014.6
20260506134017 34 0.0 0.0 0.00 0.00 0.00 92 1014.3
20260506133017 34 0.0 0.0 0.00 0.00 0.00 92 1014.2
20260506132017 33 0.0 0.0 0.00 0.00 0.00 91 1014.1
20260506131057 33 0.0 0.0 0.00 0.00 0.00 91 1014.1
20260506130017 33 0.0 0.0 0.00 0.00 0.00 91 1014.0
20260506125017 33 0.0 0.0 0.00 0.00 0.00 91 1013.8
20260506124017 33 0.0 0.0 0.00 0.00 0.00 91 1013.7
20260506123017 33 0.0 0.0 0.00 0.00 0.00 90 1013.7
20260506122017 33 0.0 0.0 0.00 0.00 0.00 90 1013.4
20260506121017 33 0.0 0.0 0.00 0.00 0.00 90 1013.4
20260506120017 34 0.0 0.0 0.00 0.00 0.00 90 1013.4
20260506115037 34 0.0 0.0 0.00 0.00 0.00 90 1013.3
20260506114017 34 0.0 0.0 0.00 0.00 0.00 90 1013.4
20260506113017 34 0.0 0.0 0.00 0.00 0.00 90 1013.5
20260506112017 35 0.0 0.0 0.00 0.00 0.00 90 1013.5
20260506111017 35 0.0 0.0 0.00 0.00 0.00 90 1013.4
20260506110017 35 0.0 0.0 0.00 0.00 0.00 90 1013.4
20260506105017 35 0.0 0.0 0.00 0.00 0.00 90 1013.3
20260506104017 35 0.0 0.0 0.00 0.00 0.00 90 1013.3
20260506103017 36 0.0 0.0 0.00 0.00 0.00 89 1013.2
20260506102017 36 0.0 0.0 0.00 0.00 0.00 89 1013.2
20260506101037 36 0.0 0.0 0.00 0.00 0.00 89 1013.1
20260506100017 36 0.0 0.0 0.00 0.00 0.00 89 1013.1
20260506095017 37 0.0 0.0 0.00 0.00 0.00 89 1013.1
20260506094017 37 0.0 0.0 0.00 0.00 0.00 89 1013.1
20260506093016 37 0.0 0.0 0.00 0.00 0.00 89 1013.1
20260506092016 37 0.0 0.0 0.00 0.00 0.00 88 1013.1
20260506091016 37 0.0 0.0 0.00 0.00 0.00 88 1013.0
20260506090037 38 0.0 0.0 0.00 0.00 0.00 88 1013.0
20260506085016 38 0.0 0.0 0.00 0.00 0.00 87 1012.9
20260506084016 39 0.0 0.0 0.00 0.00 0.00 87 1013.0
20260506083017 39 0.0 0.0 0.00 0.00 0.00 87 1013.0
20260506082017 39 0.0 0.0 0.00 0.00 0.00 87 1012.8
20260506081017 39 0.0 0.0 0.00 0.00 0.00 86 1012.7
20260506073016 40 0.0 0.0 0.00 0.00 0.00 85 1012.2
20260506072037 41 0.0 0.0 0.00 0.00 0.00 84 1012.3
20260506071036 41 0.0 0.0 0.00 0.00 0.00 84 1012.2
20260506062017 43 0.0 0.0 0.00 0.00 0.00 80 1012.0
20260506061037 44 0.0 0.0 0.00 0.00 0.00 80 1012.0
20260506051016 47 0.0 0.0 0.00 0.00 0.00 76 1011.4
20260506045017 48 0.0 0.0 0.00 0.00 0.00 74 1011.1
20260506044017 49 0.0 0.0 0.00 0.00 0.00 73 1011.1
20260506043016 50 0.0 0.0 0.00 0.00 0.00 71 1011.1
20260506042036 51 0.0 0.0 0.00 0.00 0.00 69 1011.0
20260506041037 51 0.0 0.0 0.00 0.00 0.00 68 1011.0
20260506040037 52 0.0 0.0 0.00 0.00 0.00 68 1011.1
20260506035017 53 0.0 0.0 0.00 0.00 0.00 63 1010.7
20260506034017 54 0.0 0.0 0.00 0.00 0.00 61 1010.8
20260506033036 56 0.0 0.0 0.00 0.00 0.00 61 1010.9
20260506032016 57 0.0 0.0 0.00 0.00 0.00 59 1010.7
20260506031016 59 0.0 0.0 0.00 0.00 0.00 56 1010.7
20260506030017 60 0.0 0.0 0.00 0.00 0.00 53 1010.7
20260506025016 63 0.0 0.0 0.00 0.00 0.00 46 1010.0
20260506024016 65 0.0 0.0 0.00 0.00 0.00 45 1010.1
20260506023016 68 0.0 0.0 0.00 0.00 0.00 41 1010.3
20260506022017 70 0.0 0.0 0.00 0.00 0.00 37 1010.1
20260506021016 73 0.0 0.0 0.00 0.00 0.00 34 1010.4
20260506020016 74 0.0 0.9 0.00 0.00 0.00 30 1010.5
20260506015037 74 0.0 1.7 0.00 0.00 0.00 31 1010.4
20260506014016 74 0.0 1.7 0.00 0.00 0.00 30 1010.5
20260506013036 74 0.0 1.7 0.00 0.00 0.00 29 1010.4
20260506012016 75 158 0.9 2.6 0.00 0.00 0.00 28 1010.4
20260506011016 75 0.0 0.9 0.00 0.00 0.00 28 1010.4
20260506010016 74 135 0.9 1.7 0.00 0.00 0.00 28 1010.4
20260506005017 75 270 0.9 3.5 0.00 0.00 0.00 27 1010.6
20260506004016 75 113 0.9 1.7 0.00 0.00 0.00 25 1010.7
20260506003016 75 135 0.9 2.6 0.00 0.00 0.00 27 1010.8
20260506002016 75 270 0.9 2.6 0.00 0.00 0.00 28 1010.9
20260506001016 73 90 0.9 2.6 0.00 0.00 0.00 31 1011.0
20260506000016 74 113 0.9 1.7 0.00 0.00 0.00 27 1011.0
20260505235016 74 158 1.7 4.3 0.00 0.00 0.00 27 1011.3
20260505234016 74 270 0.9 2.6 0.00 0.00 0.00 25 1011.5
20260505233016 74 225 0.9 3.5 0.00 0.00 0.00 25 1011.5
20260505232016 74 90 0.9 2.6 0.00 0.00 0.00 31 1011.8
20260505231016 74 0.0 1.7 0.00 0.00 0.00 27 1011.9
20260505230036 73 90 0.9 3.5 0.00 0.00 0.00 29 1011.8
20260505225016 74 90 0.9 3.5 0.00 0.00 0.00 31 1012.3
20260505224016 72 90 0.9 1.7 0.00 0.00 0.00 27 1012.2
20260505223016 74 135 0.9 3.5 0.00 0.00 0.00 27 1012.5
20260505222016 73 90 0.9 3.5 0.00 0.00 0.00 35 1012.6
20260505221036 73 90 2.6 7.8 0.00 0.00 0.00 29 1012.5
20260505220016 72 68 0.9 3.5 0.00 0.00 0.00 30 1012.6
20260505215036 72 90 0.9 2.6 0.00 0.00 0.00 33 1012.8
20260505214016 72 113 1.7 3.5 0.00 0.00 0.00 30 1012.9
20260505213016 71 180 0.9 3.5 0.00 0.00 0.00 31 1013.0
20260505212016 71 113 1.7 4.3 0.00 0.00 0.00 33 1013.2
20260505211016 72 158 0.9 3.5 0.00 0.00 0.00 31 1013.3
20260505210016 71 113 0.9 6.1 0.00 0.00 0.00 33 1013.4